Flag for Colombia Weather past 2 weeks in Bogota, Colombia

Now
59 °F

Partly sunny.


Feels Like: 57 °F
Forecast: 44 / 69 °F
Wind: 9 mph from Southeast

Location: Bogota / Eldorado

Current Time: Jul 25, 2014 at 9:51:40 AM

Latest Report: Jul 25, 2014 at 9:00 AM


Visibility: N/A

Pressure: 30.37 "Hg

Humidity: 59%

Dew point: 45 °F

Location of BogotaLocation

Historic Weather in Bogota — Graph

°F

Bogota temperature yesterday

Maximum temperature yesterday: 63 °F (at 12:00 PM)
Minimum temperature yesterday: 50 °F (at 12:00 AM)
Average temperature yesterday: 57 °F

Past Weeks' High & Low Weather Summary

 TemperatureHumidityPressure
High66 °F (Jul 10, 12:00 PM)100% (Jul 14, 4:00 AM)30.45 "Hg (Jul 14, 4:00 AM)
Low48 °F (Jul 11, 5:00 AM)46% (Jul 23, 2:00 PM)30.25 "Hg (Jul 12, 4:00 PM)
Average57 °F73%30.35 "Hg
* Reported Jul 10 9:00 AM — Jul 25 9:00 AM, Bogota, Weather by CustomWeather, © 2014

Note: Actual official high and low records may vary slightly from our data, if they occured in-between our weather recording intervals... More about our weather records

Advertising

Bogota weather history for previous 24 hours

 ConditionsComfort  
Time TempWeatherWind HumidityBarometerVisibility
9:00 AM
Jul 25
59 °FPartly sunny.9 mph59%30.37 "HgN/A
8:00 AM59 °FScattered clouds.9 mph72%30.37 "HgN/A
7:00 AM52 °FScattered clouds.5 mph88%30.36 "HgN/A
6:00 AM48 °FScattered showers. Passing clouds.5 mph94%30.34 "HgN/A
5:00 AM50 °FScattered showers. Passing clouds.5 mph94%30.32 "Hg5 mi
4:00 AM52 °FPassing clouds.8 mph94%30.32 "Hg4 mi
3:00 AM52 °FPassing clouds.8 mph88%30.31 "HgN/A
2:00 AM52 °FPassing clouds.3 mph94%30.33 "HgN/A
1:00 AM52 °FPassing clouds.2 mph88%30.35 "HgN/A
12:00 AM54 °FPassing clouds.2 mph82%30.37 "HgN/A
11:00 PM
Jul 24
54 °FPassing clouds.2 mph77%30.38 "HgN/A
10:00 PM57 °FPassing clouds.2 mph67%30.37 "HgN/A
9:00 PM55 °FPassing clouds.9 mph72%30.35 "HgN/A
8:00 PM57 °FPassing clouds.5 mph63%30.33 "HgN/A
7:00 PM59 °FPassing clouds.8 mph59%30.31 "HgN/A
6:00 PM59 °FScattered clouds.12 mph59%30.29 "HgN/A
5:00 PM63 °FScattered clouds.16 mph52%30.27 "HgN/A
4:00 PM63 °FScattered clouds.12 mph56%30.27 "HgN/A
3:00 PM61 °FScattered clouds.16 mph63%30.28 "HgN/A
2:00 PM63 °FScattered showers. Broken clouds.N/A64%30.29 "HgN/A
1:00 PM63 °FScattered showers. Broken clouds.18 mph64%30.32 "HgN/A
12:00 PM63 °FScattered showers. Partly sunny.16 mph64%30.32 "HgN/A
11:00 AM61 °FDrizzle. Partly sunny.18 mph72%30.35 "Hg5 mi
10:00 AM61 °FPartly sunny.7 mph68%30.35 "HgN/A
9:00 AM57 °FScattered showers. Partly sunny.5 mph94%30.35 "HgN/A
Weather by CustomWeather, © 2014

See weather overviewHow to use our weather pages